Tanana, AK

11:09 AM AKDT on October 01, 2016 (GMT -0800)
Calhoun Memorial

Weather History for PATA - May, 2013

Change the Weather History Date:

Thursday, May 30, 2013

  Actual Average Record
Temperature  
Mean Temperature 65 °F -  
Max Temperature 82 °F 62 °F 82 °F (2013)
Min Temperature 48 °F 38 °F -35 °F (1971)
Growing Degree Days 15 (Base 50)    
Moisture  
Dew Point 38 °F    
Average Humidity 38    
Maximum Humidity 71    
Minimum Humidity 18    
Precipitation  
Precipitation 0.00 in - - ()
Sea Level Pressure  
Sea Level Pressure 29.79 in    
Wind  
Wind Speed 4 mph (WSW)    
Max Wind Speed 9 mph    
Max Gust Speed 17 mph    
Visibility 10 miles    
Events      
Averages and records for this station are not official NWS values.
T = Trace of Precipitation, MM = Missing Value Source: NWS Daily Summary

Daily Weather History Graph

Daily Weather History Graph

Search for Another Location

Airport or City:

Trip Planner

Search our weather history database for the weather conditions in past years. The results will help you decide how hot, cold, wet, or windy it might be!

Date:

Astronomy

May. 30, 2013 Rise Set
Actual Time 3:47 AM AKDT 12:27 AM AKDT
Civil Twilight Sun does not rise Sun does not rise
Nautical Twilight Sun does not rise Sun does not rise
Astronomical Twilight Sun does not rise Sun does not rise
Moon 2:30 AM AKDT (5/30) 12:19 PM AKDT (5/30)
Length of Visible Light 24h 00m
Length of Day
20h 39m
Waning Gibbous, 61% of the Moon is Illuminated
May 30
Waning Gibbous
May 31
Last Quarter
Jun 8
New
Jun 16
First Quarter
Jun 23
Full

Hourly Weather History & Observations

Time (AKDT) Temp. Dew Point Humidity Pressure Visibility Wind Dir Wind Speed Gust Speed Precip Events Conditions
12:52 AM 66.0 °F 39.0 °F 37% 29.73 in 10.0 mi NNE 8.1 mph - N/A   Clear
1:52 AM 63.0 °F 37.9 °F 40% 29.74 in 10.0 mi NNE 4.6 mph - N/A   Clear
2:52 AM 61.0 °F 37.9 °F 42% 29.75 in 10.0 mi ENE 3.5 mph - N/A   Clear
3:52 AM 57.0 °F 37.9 °F 49% 29.76 in 10.0 mi NE 3.5 mph - N/A   Clear
4:52 AM 50.0 °F 37.9 °F 63% 29.77 in 10.0 mi Calm Calm - N/A   Partly Cloudy
5:52 AM 50.0 °F 39.0 °F 66% 29.78 in 10.0 mi Calm Calm - N/A   Partly Cloudy
6:52 AM 48.9 °F 39.9 °F 71% 29.79 in 10.0 mi Calm Calm - N/A   Partly Cloudy
7:52 AM 57.0 °F 41.0 °F 55% 29.79 in 10.0 mi SSE 3.5 mph - N/A   Partly Cloudy
8:52 AM 57.9 °F 41.0 °F 53% 29.80 in 10.0 mi Calm Calm - N/A   Clear
9:52 AM 66.0 °F 41.0 °F 40% 29.80 in 10.0 mi SSE 4.6 mph - N/A   Clear
10:52 AM 68.0 °F 41.0 °F 37% 29.81 in 10.0 mi SSW 3.5 mph - N/A   Scattered Clouds
11:52 AM 72.0 °F 41.0 °F 33% 29.81 in 10.0 mi WSW 4.6 mph - N/A   Scattered Clouds
12:52 PM 78.1 °F 33.1 °F 19% 29.80 in 10.0 mi South 4.6 mph - N/A   Scattered Clouds
1:52 PM 79.0 °F 36.0 °F 21% 29.80 in 8.0 mi WSW 5.8 mph - N/A   Scattered Clouds
2:52 PM 82.0 °F 34.0 °F 18% 29.80 in 10.0 mi Calm Calm - N/A   Scattered Clouds
3:52 PM 81.0 °F 34.0 °F 18% 29.79 in 10.0 mi WSW 3.5 mph - N/A   Scattered Clouds
4:52 PM 82.0 °F 34.0 °F 18% 29.79 in 8.0 mi WSW 4.6 mph - N/A   Scattered Clouds
5:52 PM 69.1 °F 39.0 °F 33% 29.79 in 10.0 mi SSW 3.5 mph - N/A   Scattered Clouds
6:52 PM 75.9 °F 37.9 °F 25% 29.79 in 10.0 mi SW 6.9 mph - N/A   Scattered Clouds
7:52 PM 78.1 °F 37.9 °F 24% 29.80 in 10.0 mi West 5.8 mph - N/A   Scattered Clouds
8:52 PM 75.9 °F 39.9 °F 27% 29.82 in 10.0 mi West 6.9 mph 17.3 mph N/A   Overcast
9:52 PM 77.0 °F 39.0 °F 25% 29.83 in 10.0 mi NW 9.2 mph - N/A   Clear
10:52 PM 62.1 °F 39.9 °F 44% 29.84 in 10.0 mi West 3.5 mph - N/A   Clear
11:52 PM 64.9 °F 41.0 °F 42% 29.86 in 7.0 mi Calm Calm - N/A   Clear